Tracking 27428 objects as of 1-Jun-2023
HD Live streaming from Space Station
objects crossing your sky now

MOLNIYA 1-75

Track MOLNIYA 1-75 now!
MOLNIYA 1-75 is classified as:


NORAD ID: 19807
Int'l Code: 1989-014A
Perigee: 2,337.2 km
Apogee: 38,081.3 km
Inclination: 63.9 °
Period: 718.8 minutes
Semi major axis: 26580 km
RCS: 12.6191 m2 (large)
Launch date: February 15, 1989
Source: Commonwealth of Independent States (former USSR) (CIS)
Launch site: TYURATAM MISSILE AND SPACE COMPLEX (TTMTR)
Your satellite tracking list
Your tracking list is empty




NASA's NSSDC Master Catalog

Two Line Element Set (TLE):
1 19807U 89014A   23149.69059987 -.00001038  00000-0  00000-0 0  9992
2 19807  63.8506 247.8066 6723796 265.0166  21.4641  2.00338245250949
Source of the keplerian elements: AFSPC